Retour au catalogue

COSMOS 2251 DEB

ActifLEO
NORAD 35789·DEBRIS·🇷🇺 Russia

Lancé Jun 16, 1993 depuis Plesetsk Cosmodrome

Loading…

Prochains Passages (prochaines 24 heures)

TLE

VieillissantSource: Space-Track

Époque: Sep 11, 2026, 02:51 UTC

1 35789U 93036ASK 26254.11897509  .00000149  00000-0  59483-4 0  9999
2 35789  74.0385 144.3370 0048046 180.0475 180.0682 14.36145030651374

Suivez COSMOS 2251 DEB en temps réel avec AllMySat

Download on the App Store